Regional Weather Roundup
Issued by NWS

Home | Current Version | Previous Version | Text Only | Print | Product List | Glossary On
Versions: 1 2 3 4 5 6 7 8 9 10 11 12 13 14 15 16 17 18 19 20 21 22 23 24 25 26 27 28 29 30 31 32 33 34 35 36 37 38 39 40 41 42 43 44 45 46 47 48 49 50
000
ASUS43 KMKX 290500
RWRWI

WISCONSIN REGIONAL WEATHER ROUNDUP
NATIONAL WEATHER SERVICE MILWAUKEE/SULLIVAN WI
1200 AM CDT WED JUL 29 2015

NOTE: "FAIR" INDICATES FEW OR NO CLOUDS BELOW 12,000 FEET WITH NO
SIGNIFICANT WEATHER AND/OR OBSTRUCTIONS TO VISIBILITY.

WIZ001-002-006>008-014>016-023>028-290600-
NORTHWEST WISCONSIN

CITY           SKY/WX    TMP DP  RH WIND       PRES   REMARKS
SUPERIOR ARPT  CLEAR     72  60  65 SW9       29.81R
ASHLAND        MOCLDY    72  71  97 SW14G20   29.80R
HAYWARD        CLOUDY    74  59  59 W7G18     29.88R
SIREN          CLEAR     66  60  80 SW6       29.88F
CUMBERLAND     PTCLDY    70  57  64 W8        29.92R
RICE LAKE      MOCLDY    72  60  65 W8        29.91S
CHETEK         CLOUDY    74  62  65 W10G23    29.90R
LADYSMITH      CLOUDY    76  72  86 SW10G16   29.90R
EAU CLAIRE     NOT AVBL
MENOMONIE      MOCLDY    76  64  65 W14G24    29.91R
NEW RICHMOND   PTCLDY    68  59  72 W7        29.92S
OSCEOLA        PTCLDY    69  60  72 SW5       29.94S
$$

WIZ003>005-009-010-017-018-290600-
NORTH CENTRAL WISCONSIN

CITY           SKY/WX    TMP DP  RH WIND       PRES   REMARKS
MANITOWISH WTR CLOUDY    74  71  91 S10       29.87S
ARBOR VITAE    MOCLDY    77  73  86 S10       29.88S
WOODRUFF       MOCLDY    77  73  86 S10       29.88S
RHINELANDER    CLOUDY    74  69  85 S7        29.91S
EAGLE RIVER    PTCLDY    71  67  87 S5        29.89S
LAND O LAKES   MOCLDY    73  67  82 S6        29.90S
PHILLIPS       CLOUDY    74  72  92 SW8       29.87S
TOMAHAWK       CLOUDY    73  69  86 S3        29.91R
MEDFORD        CLOUDY    73  72  94 SW7       29.91S
MERRILL        NOT AVBL
$$

WIZ029-030-035-036-043>047-290600-
CENTRAL WISCONSIN

CITY           SKY/WX    TMP DP  RH WIND       PRES   REMARKS
WAUSAU         MOCLDY    75  70  84 SW8       29.90R
MOSINEE        CLOUDY    73  70  88 S9        29.93R
MARSHFIELD     CLOUDY    75  69  81 SW8       29.92R
STEVENS POINT  CLOUDY    73  69  88 SW7       29.93R
WAUPACA        MOCLDY    74  73  95 SW5       29.92R
WAUTOMA        NOT AVBL
WISC RAPIDS    CLOUDY    76  69  79 SW7       29.93R
CAMP DOUGLAS   NOT AVBL
$$

WIZ011>013-019>022-031-037>040-048>050-290600-
NORTHEAST WISCONSIN

CITY           SKY/WX    TMP DP  RH WIND       PRES   REMARKS
ANTIGO         MOCLDY    70  69  96 S6        29.93R
SHAWANO        PTCLDY    74  67  78 CALM      29.91R
OCONTO         PTCLDY    74  69  86 S3        29.89S
STURGEON BAY   PTCLDY    72  63  73 S9        29.94R
GREEN BAY      PTCLDY    74  68  81 S8        29.92R
MANITOWOC      NOT AVBL
APPLETON       MOCLDY    72  70  94 S7        29.93R
CLINTONVILLE   MOCLDY    72  64  78 CALM      29.91R
OSHKOSH        MOCLDY    76  71  85 SW7       29.93R
$$

WIZ032>034-041-042-053>061-290600-
SOUTHWEST WISCONSIN

CITY           SKY/WX    TMP DP  RH WIND       PRES   REMARKS
LA CROSSE      CLOUDY    77  71  82 S6        29.91S
SPARTA         CLOUDY    74  69  83 SW3       29.93R
VIROQUA        CLOUDY    72  72 100 SW6       29.96R
BOSCOBEL       CLOUDY    75  71  87 SW3       29.94S
PRAIRIE DU CHI CLOUDY    75  71  88 S5        29.95R
PLATTEVILLE    CLOUDY    75  74  98 S5        29.97S
$$

WIZ056-057-062-063-064-067-068-290600-
SOUTH CENTRAL WISCONSIN

CITY           SKY/WX    TMP DP  RH WIND       PRES   REMARKS
REEDSBURG      CLOUDY    74  71  91 S5        29.94S
BARABOO/DELLS  CLOUDY    74  68  81 SW6       29.95S
LONE ROCK      NOT AVBL
MINERAL POINT  CLOUDY    75  73  94 SE3       29.97S FOG
MADISON        CLOUDY    79  72  79 SW6       29.94F HX  82
MIDDLETON      CLOUDY    75  73  94 CALM      29.96S
WATERTOWN      CLOUDY    74  74 100 CALM      29.96R
MONROE         CLOUDY    75  72  88 SW7       29.97S
JANESVILLE     CLOUDY    77  73  88 CALM      29.95S
$$

WIZ051-052-058>065-066-070>072-290600-
SOUTHEAST WISCONSIN

CITY           SKY/WX    TMP DP  RH WIND       PRES   REMARKS
MILWAUKEE      MOCLDY    77  68  73 SW3       29.94R
WAUKESHA       MOCLDY    73  68  83 CALM      29.97R
MILWAUKEE/TIMM MOCLDY    75  64  69 S3        29.95R
RACINE         MOCLDY    75  69  81 S3        29.97R
BURLINGTON     MOCLDY    69  69  97 CALM      29.96R FOG
KENOSHA        MOCLDY    73  69  87 CALM      29.95R
FOND DU LAC    MOCLDY    75  71  87 SW6       29.94R
SHEBOYGAN      PTCLDY    70  67  90 CALM      29.95R
WEST BEND      MOCLDY    72  66  83 CALM      29.96R
JUNEAU         CLOUDY    73  71  93 S5        29.96R
$$

LSZ147-162-290600-
LAKE SUPERIOR

STATION/POSITION TIME  TEMP    WIND        PRES    WAVE
                       AIR SEA DIR/SP/G            HT/PER
                 (UTC) (F)     (DEG/KT/KT) (MB)    (FT/S)
W MID LAKE BUOY  0350   68 62  160/ 12/ 12 1006.8F   1
DEVILS ISLAND    0400   78     210/  9/ 12 1007.0F
PORT WING        0400   80     230/ 11/ 18 1008.5
SAXON HARBOR     0440   79                 1008.1S
$$

LMZ867-665-643>646-290600-
LAKE MICHIGAN

STATION/POSITION TIME  TEMP    WIND        PRES    WAVE
                       AIR SEA DIR/SP/G            HT/PER
                 (UTC) (F)     (DEG/KT/KT) (MB)    (FT/S)
CHAMBERS ISLAND  0400   76     150/  5/ 11 1011.9F
N MID LAKE BUOY  0350   72 71  170/ 10/ 12 1012.4F   1
NORTHPORT PIER   0400   74     160/  5/  7 1012.2F
SISTER BAY       0444   74     170/ 11/ 14   N/A
KEWAUNEE LAKESHO 0400   66     190/  7/  8 1012.2F
SHEBOYGAN LAKESH 0400   72     190/  9/  9 1013.3F
PORT WASHINGTON  0440   72     190/  2/  6 1014.6R
ATWATER BUOY     0400   71     180/  6/  6 1014.8S
MILWAUKEE LAKESH 0400   71     180/  4/  5   N/A
KENOSHA   LAKESH 0400   75     180/  5/  7 1013.2R
$$

TC  - TEMPERATURE IN CELSIUS
VSB - VISIBILITY IN STATUTE MILES
WCI - WIND CHILL INDEX
HX  - HEAT INDEX




USA.gov is the U.S. government's official web portal to all federal, state and local government web resources and services.